Edwards AFB, CA

4:01 PM PST on January 20, 2018 (GMT -0800)
Edwards Air Force Base

Weather History for KEDW - September, 2013

Change the Weather History Date:

Friday, September 20, 2013

  Actual Average Record
Temperature  
Mean Temperature 74 °F -  
Max Temperature 93 °F 88 °F 104 °F (2000)
Min Temperature 55 °F 54 °F 48 °F (1997)
Cooling Degree Days 9    
Growing Degree Days 24 (Base 50)    
Moisture  
Dew Point 37 °F    
Average Humidity 28    
Maximum Humidity 47    
Minimum Humidity 11    
Precipitation  
Precipitation 0.00 in - - ()
Sea Level Pressure  
Sea Level Pressure 29.76 in    
Wind  
Wind Speed 9 mph (WSW)    
Max Wind Speed 28 mph    
Max Gust Speed 34 mph    
Visibility 10 miles    
Events      
Averages and records for this station are not official NWS values.
T = Trace of Precipitation, MM = Missing Value Source: NWS Daily Summary

Daily Weather History Graph

Daily Weather History Graph

Search for Another Location

Airport or City:

Trip Planner

Search our weather history database for the weather conditions in past years. The results will help you decide how hot, cold, wet, or windy it might be!

Date:

Astronomy

Sep. 20, 2013 Rise Set
Actual Time 6:38 AM PDT 6:50 PM PDT
Civil Twilight 6:13 AM PDT 7:15 PM PDT
Nautical Twilight 5:43 AM PDT 7:45 PM PDT
Astronomical Twilight 5:13 AM PDT 8:15 PM PDT
Moon 7:33 PM PDT (9/20) 7:53 AM PDT (9/20)
Length of Visible Light 13h 02m
Length of Day
12h 12m
Full, 98% of the Moon is Illuminated
Sep 20
Full
Sep 26
Last Quarter
Oct 4
New
Oct 11
First Quarter
Oct 18
Full

Hourly Weather History & Observations

Time (PDT) Temp. Dew Point Humidity Pressure Visibility Wind Dir Wind Speed Gust Speed Precip Events Conditions
12:58 AM 62.8 °F 28.6 °F 27% 29.76 in 10.0 mi WSW 4.6 mph - N/A   Clear
1:58 AM 62.1 °F 27.1 °F 27% 29.75 in 10.0 mi WSW 3.5 mph - N/A   Clear
2:58 AM 61.0 °F 27.9 °F 28% 29.75 in 10.0 mi West 3.5 mph - N/A   Clear
3:58 AM 58.1 °F 32.9 °F 39% 29.75 in 10.0 mi SW 5.8 mph - N/A   Clear
4:58 AM 55.8 °F 32.0 °F 41% 29.76 in 10.0 mi NW 1.2 mph - N/A   Clear
5:58 AM 56.7 °F 26.1 °F 31% 29.77 in 40.0 mi North 2.3 mph - N/A   Clear
6:58 AM 56.3 °F 28.6 °F 35% 29.84 in 50.0 mi North 3.5 mph - N/A   Clear
7:58 AM 60.3 °F 28.8 °F 30% 29.80 in 50.0 mi NNE 2.3 mph - N/A   Clear
8:58 AM 64.9 °F 32.2 °F 29% 29.80 in 50.0 mi Variable 1.2 mph - N/A   Clear
9:58 AM 69.8 °F 33.8 °F 27% 29.80 in 50.0 mi NNE 2.3 mph - N/A   Clear
10:58 AM 76.6 °F 33.4 °F 21% 29.79 in 50.0 mi Variable 4.6 mph - N/A   Clear
11:58 AM 82.9 °F 32.9 °F 16% 29.77 in 60.0 mi NE 3.5 mph - N/A   Clear
12:58 PM 88.7 °F 30.6 °F 12% 29.75 in 50.0 mi SE 5.8 mph - N/A   Clear
1:58 PM 92.3 °F 31.3 °F 11% 29.73 in 50.0 mi SW 10.4 mph 16.1 mph N/A   Clear
2:33 PM 93.2 °F 41.0 °F 16% 29.78 in 50.0 mi WSW 17.3 mph 23.0 mph N/A   Clear
2:58 PM 92.1 °F 42.6 °F 18% 29.71 in 40.0 mi WSW 19.6 mph 26.5 mph N/A   Clear
3:33 PM 91.4 °F 41.0 °F 17% 29.77 in 40.0 mi WSW 21.9 mph 28.8 mph N/A   Clear
3:58 PM 91.0 °F 39.6 °F 16% 29.71 in 40.0 mi WSW 23.0 mph 29.9 mph N/A   Clear
4:34 PM 89.6 °F 41.0 °F 18% 29.75 in 40.0 mi West 27.6 mph 34.5 mph N/A   Clear
4:58 PM 87.8 °F 40.8 °F 19% 29.70 in 40.0 mi WSW 25.3 mph 28.8 mph N/A   Clear
5:58 PM 83.3 °F 41.2 °F 22% 29.71 in 40.0 mi WSW 25.3 mph 32.2 mph N/A   Clear
6:58 PM 79.5 °F 36.3 °F 21% 29.73 in 40.0 mi WSW 20.7 mph - N/A   Clear
7:58 PM 73.0 °F 49.6 °F 44% 29.75 in 30.0 mi West 20.7 mph - N/A   Clear
8:58 PM 70.5 °F 49.5 °F 47% 29.77 in 30.0 mi WSW 19.6 mph - N/A   Clear
9:58 PM 69.6 °F 48.7 °F 47% 29.77 in 30.0 mi WSW 18.4 mph - N/A   Clear
10:58 PM 68.0 °F 47.3 °F 47% 29.77 in 10.0 mi SW 10.4 mph - N/A   Clear
11:58 PM 66.4 °F 43.7 °F 44% 29.78 in 10.0 mi SW 12.7 mph - N/A   Clear